Regional Weather Roundup
Issued by NWS

Home | Current Version | Previous Version | Text Only | Print | Product List | Glossary On
Versions: 1 2 3 4 5 6 7 8 9 10 11 12 13 14 15 16 17 18 19 20 21 22 23 24 25 26 27 28 29 30 31 32 33 34 35 36 37 38 39 40 41 42 43 44 45 46 47 48 49 50
000
ASUS43 KIND 211609
RWRIN

WEATHER ROUNDUP FOR INDIANA
NATIONAL WEATHER SERVICE INDIANAPOLIS IN
1100 AM EST SUN DEC 21 2014

NOTE: "FAIR" INDICATES FEW OR NO CLOUDS BELOW 12,000 FEET WITH NO
SIGNIFICANT WEATHER AND/OR OBSTRUCTIONS TO VISIBILITY.

* - STATION DOES NOT REPORT WEATHER SUCH AS PRECIPITATION OR FOG.

+ - STATION NOT QUALITY CONTROLLED BY THE NATIONAL WEATHER SERVICE.
    USE DATA WITH CAUTION...ESPECIALLY DEWPOINT AND RELATIVE
    HUMIDITY OBSERVATIONS.

INZ001>003-010>013-019-020-211700-
NORTHWEST INDIANA

CITY           SKY/WX    TMP DP  RH WIND       PRES   REMARKS
KNOX *+        CLOUDY    33  24  71 S13       30.25S WCI  23
LA PORTE +     CLOUDY    33  29  83 S7        30.25S HAZE    WCI  27
MICHIGAN CITY+ CLOUDY    32  23  69 S9        30.25S WCI  24
MONTICELLO +   CLOUDY    32  26  78 S9        30.26S WCI  24
RENSSELAER +   CLOUDY    32  30  93 SE10      30.25F WCI  24
VALPARAISO     CLOUDY    31  26  82 S9        30.25S WCI  23

$$

LMZ046-743>745-211700-
SOUTHERN LAKE MICHIGAN

STATION/POSITION TIME  TEMP WIND        PRES
                       AIR  DIR/SP/G
                 (UTC) (F)  (DEG/KT/KT) (MB)

$$

INZ004-005-014>016-021>024-211700-
NORTH CENTRAL INDIANA

CITY           SKY/WX    TMP DP  RH WIND       PRES   REMARKS
GOSHEN         CLOUDY    32  26  78 S8        30.26F HAZE    WCI  25
LOGANSPORT +   PTSUNNY   32  27  80 SE13      30.28S WCI  22
PERU/GRISSOM   MOSUNNY   33  31  95 S12       30.27S WCI  24
ROCHESTER +    CLOUDY    34  30  86 SE8       30.27F HAZE    WCI  27
SOUTH BEND     CLOUDY    33  26  75 S9        30.26S WCI  25
WARSAW +       CLOUDY    32  27  80 S7        30.27S HAZE    WCI  26

$$

INZ006>009-017-018-025>027-211700-
NORTHEAST INDIANA

CITY           SKY/WX    TMP DP  RH WIND       PRES   REMARKS
ANGOLA *+      CLOUDY    30  27  86 S8        30.27S WCI  23
AUBURN +       CLOUDY    32  27  80 S3        30.29S
FORT WAYNE     CLOUDY    32  25  75 S8        30.30S HAZE    WCI  25
HUNTINGTON +   CLOUDY    31  26  82 S7        30.29S WCI  24

$$

INZ028-029-035-036-043>045-051>053-211700-
WEST CENTRAL INDIANA

CITY           SKY/WX    TMP DP  RH WIND       PRES   REMARKS
GREENCASTLE +  SUNNY     32  27  80 SE7       30.28F WCI  26
LAFAYETTE      MOSUNNY   33  26  75 S7        30.27F WCI  27
TERRE HAUTE    MOSUNNY   33  27  78 SE8       30.28S WCI  26

$$

INZ030>032-037>040-046>048-054>057-064-065-211700-
CENTRAL INDIANA

CITY           SKY/WX    TMP DP  RH WIND       PRES   REMARKS
CP ATTERBURY + SUNNY     32  28  86 MISG      30.30S
COLUMBUS       MOSUNNY   32  28  86 SE7       30.30F WCI  26
FRANKFORT +    MOSUNNY   32  28  86 SE12      30.28F WCI  23
GREENWOOD *+   SUNNY     32  25  74 SE7       30.29F WCI  26
INDIANAPOLIS   PTSUNNY   30  25  81 SE7       30.28S WCI  23
-EAGLE CREEK   SUNNY     31  26  82 S6        30.28F WCI  25
KOKOMO *+      MOSUNNY   32  25  74 S13       30.28S WCI  22
MARION +       CLOUDY    31  27  84 S8        30.30S WCI  23
MT COMFORT *+  SUNNY     32  21  64 S7        30.29S WCI  26
SHELBYVILLE    MOSUNNY   32  26  78 S10       30.29S WCI  24
ZIONSVILLE +   SUNNY     32  26  81 S9        30.28F WCI  24

$$

INZ033-034-041-042-049-050-058-059-211700-
EAST CENTRAL INDIANA

CITY           SKY/WX    TMP DP  RH WIND       PRES   REMARKS
MUNCIE         CLOUDY    31  25  78 SE10      30.29F HAZE    WCI  22

$$

INZ060-061-067>069-081>083-085>088-211700-
SOUTHWEST INDIANA

CITY           SKY/WX    TMP DP  RH WIND       PRES   REMARKS
EVANSVILLE     SUNNY     35  29  78 SE6       30.28F WCI  30
HUNTINGBURG *+ SUNNY     34  28  80 SE7       30.28F WCI  28
WASHINGTON +   SUNNY     32  27  80 SE7       30.28S WCI  26

$$

INZ062-063-066-070>080-084-089>092-211700-
SOUTH CENTRAL AND SOUTHEAST INDIANA

CITY           SKY/WX    TMP DP  RH WIND       PRES   REMARKS
BLOOMINGTON    SUNNY     31  28  89 SE7       30.27S WCI  24
SEYMOUR +      SUNNY     36  28  75 SE7       30.31  HAZE

$$



USA.gov is the U.S. government's official web portal to all federal, state and local government web resources and services.